Location: Chervonnoye
(48.6000°N, 34.4000°E)
Time: 17:37:50
(UTC+00:00)

Okean-O - Pass Details

Date: 24 April 2021
Orbit: 639 x 640 km, 98.2° (Epoch: 16 May)

Event Time Altitude Azimuth Distance (km) Brightness Sun altitude
Rises 17:40:09 0° 206° (SSW) 2,934 6.0 -8.7°
Reaches altitude 10° 17:42:57 10° 225° (SW) 2,030 5.4 -9.1°
Maximum altitude 17:46:01 18° 269° (W) 1,559 5.5 -9.5°
Drops below altitude 10° 17:49:06 10° 313° (NW) 2,042 6.8 -9.9°
Sets 17:51:57 0° 332° (NNW) 2,957 7.2 -10.3°
